QPF
0.01 0.01 0.03 0.05 0.05 0.05 0.03 0.03 0.01 0.01 0.00 0.01 0.01 0.01 0.00 0.01 0.02 0.07 0.16 0.13 0.04 0.03 0.05 0.08 0.13 0.18 0.19 0.17 0.18 0.18 0.15 0.12 0.11 0.14 0.15 0.16 0.15 0.11 0.11 0.13 0.13 0.12 0.12 0.15 0.16 0.15 0.14 0.12 0.13
0.01 0.02 0.02 0.03 0.06 0.03 0.02 0.03 0.01 0.00 0.00 0.00 0.00 0.00 0.00 0.01 0.02 0.07 0.13 0.10 0.02 0.02 0.02 0.04 0.07 0.10 0.13 0.13 0.12 0.09 0.09 0.10 0.12 0.18 0.18 0.17 0.14 0.12 0.13 0.13 0.11 0.11 0.13 0.18 0.22 0.20 0.17 0.14 0.12
0.02 0.03 0.02 0.05 0.05 0.02 0.01 0.01 0.00 0.00 0.00 0.00 0.00 0.00 0.00 0.01 0.02 0.05 0.08 0.04 0.01 0.01 0.02 0.03 0.03 0.04 0.05 0.04 0.05 0.08 0.09 0.07 0.07 0.09 0.09 0.10 0.10 0.09 0.08 0.08 0.08 0.11 0.20 0.29 0.28 0.23 0.18 0.15 0.12
0.01 0.02 0.01 0.03 0.01 0.00 0.00 0.01 0.01 0.00 0.00 0.00 0.00 0.00 0.02 0.02 0.02 0.03 0.04 0.01 0.01 0.01 0.02 0.02 0.02 0.02 0.02 0.02 0.04 0.05 0.06 0.05 0.05 0.05 0.07 0.07 0.07 0.07 0.06 0.07 0.10 0.17 0.24 0.24 0.20 0.17 0.16 0.14 0.11
0.01 0.00 0.01 0.02 0.01 0.00 0.00 0.00 0.00 0.00 0.00 0.00 0.00 0.01 0.03 0.03 0.02 0.02 0.03 0.02 0.01 0.00 0.00 0.01 0.01 0.01 0.02 0.02 0.02 0.03 0.06 0.05 0.05 0.04 0.05 0.06 0.07 0.08 0.12 0.15 0.20 0.24 0.23 0.19 0.14 0.14 0.12 0.09 0.08
0.00 0.00 0.01 0.03 0.01 0.00 0.00 0.00 0.00 0.00 0.00 0.00 0.00 0.01 0.03 0.04 0.03 0.04 0.03 0.03 0.02 0.01 0.01 0.00 0.01 0.01 0.01 0.01 0.03 0.03 0.04 0.06 0.06 0.06 0.06 0.08 0.06 0.06 0.13 0.17 0.17 0.15 0.14 0.09 0.08 0.07 0.06 0.05 0.05
0.00 0.01 0.01 0.04 0.03 0.00 0.00 0.00 0.00 0.00 0.00 0.00 0.00 0.01 0.02 0.06 0.07 0.04 0.04 0.03 0.03 0.04 0.04 0.01 0.00 0.01 0.00 0.01 0.04 0.05 0.05 0.07 0.09 0.10 0.10 0.08 0.05 0.05 0.07 0.08 0.06 0.06 0.04 0.03 0.03 0.04 0.04 0.04 0.04
0.00 0.01 0.01 0.02 0.01 0.00 0.00 0.00 0.00 0.00 0.00 0.00 0.00 0.01 0.01 0.06 0.10 0.04 0.02 0.03 0.03 0.06 0.07 0.03 0.02 0.01 0.01 0.01 0.03 0.04 0.07 0.09 0.10 0.10 0.09 0.07 0.06 0.05 0.05 0.04 0.02 0.02 0.02 0.02 0.03 0.03 0.03 0.03 0.04
0.00 0.02 0.02 0.01 0.00 0.00 0.00 0.00 0.00 0.00 0.00 0.00 0.00 0.00 0.01 0.03 0.04 0.02 0.01 0.02 0.05 0.08 0.06 0.03 0.03 0.02 0.01 0.01 0.02 0.03 0.04 0.05 0.05 0.05 0.05 0.04 0.04 0.03 0.02 0.02 0.02 0.02 0.02 0.03 0.02 0.02 0.03 0.03 0.03
0.00 0.01 0.01 0.01 0.00 0.00 0.00 0.00 0.00 0.00 0.00 0.00 0.01 0.01 0.01 0.01 0.01 0.00 0.01 0.01 0.01 0.04 0.06 0.05 0.05 0.03 0.02 0.01 0.01 0.02 0.02 0.02 0.02 0.02 0.02 0.02 0.02 0.01 0.01 0.03 0.03 0.03 0.03 0.03 0.03 0.02 0.02 0.03 0.03
0.00 0.01 0.01 0.00 0.00 0.00 0.00 0.00 0.00 0.00 0.00 0.00 0.01 0.03 0.03 0.01 0.01 0.00 0.00 0.00 0.00 0.01 0.05 0.07 0.06 0.04 0.03 0.02 0.01 0.01 0.02 0.02 0.02 0.01 0.02 0.02 0.02 0.02 0.02 0.04 0.04 0.04 0.03 0.03 0.03 0.02 0.02 0.04 0.04
0.00 0.00 0.01 0.00 0.00 0.00 0.00 0.00 0.00 0.00 0.00 0.00 0.01 0.04 0.04 0.02 0.00 0.00 0.00 0.01 0.01 0.02 0.04 0.08 0.07 0.05 0.03 0.02 0.02 0.02 0.02 0.01 0.02 0.02 0.02 0.03 0.04 0.03 0.03 0.04 0.03 0.03 0.02 0.02 0.03 0.04 0.04 0.04 0.04
0.00 0.00 0.00 0.00 0.00 0.00 0.00 0.00 0.00 0.00 0.00 0.00 0.01 0.04 0.03 0.01 0.01 0.01 0.01 0.00 0.01 0.01 0.03 0.06 0.06 0.05 0.03 0.03 0.03 0.02 0.02 0.02 0.02 0.02 0.03 0.03 0.04 0.03 0.03 0.03 0.02 0.02 0.02 0.03 0.03 0.03 0.03 0.03 0.04
0.00 0.00 0.00 0.00 0.00 0.00 0.00 0.00 0.00 0.00 0.00 0.00 0.00 0.00 0.01 0.02 0.02 0.01 0.01 0.00 0.00 0.01 0.02 0.05 0.05 0.05 0.04 0.04 0.03 0.03 0.02 0.02 0.02 0.03 0.03 0.03 0.03 0.02 0.03 0.04 0.02 0.02 0.02 0.02 0.03 0.03 0.03 0.03 0.04
0.00 0.00 0.00 0.00 0.00 0.00 0.00 0.01 0.01 0.00 0.00 0.00 0.00 0.00 0.01 0.01 0.02 0.01 0.01 0.00 0.00 0.00 0.01 0.03 0.04 0.05 0.06 0.04 0.05 0.03 0.02 0.02 0.02 0.02 0.04 0.05 0.04 0.02 0.02 0.03 0.03 0.02 0.02 0.02 0.03 0.04 0.03 0.03 0.03
0.00 0.00 0.00 0.01 0.01 0.01 0.00 0.01 0.03 0.02 0.00 0.00 0.00 0.00 0.00 0.00 0.00 0.00 0.00 0.00 0.00 0.01 0.01 0.02 0.04 0.05 0.07 0.06 0.07 0.04 0.03 0.03 0.02 0.03 0.04 0.04 0.04 0.05 0.04 0.04 0.04 0.03 0.02 0.03 0.04 0.04 0.03 0.04 0.04
0.01 0.00 0.00 0.01 0.01 0.01 0.01 0.02 0.04 0.04 0.02 0.01 0.00 0.00 0.00 0.00 0.00 0.00 0.00 0.00 0.00 0.01 0.02 0.02 0.04 0.05 0.05 0.05 0.06 0.05 0.04 0.03 0.03 0.03 0.03 0.04 0.05 0.05 0.05 0.05 0.05 0.05 0.04 0.04 0.04 0.04 0.03 0.04 0.03
0.01 0.00 0.01 0.01 0.01 0.01 0.01 0.01 0.02 0.08 0.10 0.02 0.00 0.00 0.00 0.00 0.00 0.00 0.00 0.00 0.00 0.01 0.01 0.02 0.03 0.03 0.02 0.03 0.04 0.05 0.05 0.05 0.04 0.04 0.04 0.04 0.04 0.05 0.04 0.04 0.04 0.03 0.03 0.03 0.04 0.04 0.02 0.03 0.03
0.00 0.00 0.01 0.01 0.01 0.01 0.01 0.01 0.01 0.08 0.08 0.02 0.01 0.01 0.00 0.00 0.00 0.00 0.00 0.00 0.00 0.01 0.01 0.02 0.03 0.02 0.02 0.03 0.04 0.06 0.07 0.07 0.07 0.06 0.05 0.05 0.05 0.05 0.04 0.03 0.03 0.03 0.02 0.02 0.03 0.03 0.02 0.03 0.03
0.00 0.00 0.01 0.01 0.01 0.02 0.02 0.01 0.02 0.09 0.06 0.02 0.02 0.01 0.00 0.00 0.00 0.00 0.00 0.00 0.00 0.01 0.02 0.03 0.04 0.02 0.02 0.02 0.03 0.04 0.06 0.07 0.07 0.05 0.04 0.03 0.03 0.02 0.03 0.02 0.02 0.02 0.02 0.02 0.02 0.02 0.02 0.02 0.04
0.00 0.01 0.01 0.01 0.01 0.01 0.01 0.02 0.02 0.08 0.05 0.05 0.03 0.01 0.01 0.00 0.01 0.00 0.00 0.00 0.01 0.02 0.04 0.06 0.07 0.04 0.02 0.02 0.02 0.03 0.05 0.06 0.06 0.04 0.03 0.03 0.03 0.02 0.02 0.02 0.01 0.02 0.02 0.03 0.02 0.02 0.03 0.04 0.06
0.00 0.00 0.01 0.01 0.01 0.01 0.01 0.02 0.03 0.03 0.07 0.10 0.05 0.02 0.01 0.01 0.01 0.00 0.00 0.00 0.01 0.01 0.03 0.05 0.05 0.03 0.01 0.02 0.03 0.03 0.06 0.13 0.11 0.05 0.03 0.03 0.03 0.02 0.02 0.03 0.02 0.02 0.02 0.03 0.02 0.03 0.04 0.05 0.06
0.00 0.00 0.01 0.01 0.01 0.01 0.01 0.01 0.02 0.03 0.05 0.06 0.06 0.03 0.01 0.01 0.01 0.00 0.00 0.00 0.00 0.01 0.01 0.01 0.01 0.01 0.01 0.02 0.03 0.04 0.07 0.16 0.10 0.04 0.03 0.02 0.02 0.02 0.02 0.02 0.02 0.02 0.02 0.02 0.03 0.03 0.05 0.05 0.08
0.00 0.00 0.01 0.01 0.01 0.01 0.01 0.01 0.02 0.02 0.03 0.03 0.03 0.02 0.02 0.01 0.00 0.00 0.00 0.00 0.00 0.00 0.00 0.00 0.00 0.01 0.01 0.01 0.01 0.02 0.04 0.05 0.05 0.04 0.03 0.03 0.04 0.03 0.02 0.01 0.01 0.02 0.02 0.02 0.03 0.03 0.06 0.06 0.05
0.00 0.00 0.01 0.02 0.02 0.01 0.00 0.01 0.01 0.02 0.03 0.04 0.03 0.03 0.02 0.01 0.01 0.00 0.00 0.00 0.00 0.00 0.00 0.00 0.00 0.01 0.01 0.01 0.01 0.02 0.03 0.04 0.03 0.03 0.03 0.03 0.04 0.03 0.02 0.01 0.02 0.03 0.03 0.02 0.03 0.05 0.06 0.06 0.05
0.00 0.00 0.00 0.01 0.01 0.00 0.00 0.01 0.03 0.05 0.03 0.04 0.03 0.02 0.01 0.01 0.01 0.01 0.01 0.01 0.01 0.01 0.00 0.00 0.01 0.01 0.01 0.01 0.02 0.03 0.02 0.03 0.02 0.03 0.03 0.03 0.04 0.04 0.04 0.03 0.03 0.04 0.03 0.03 0.04 0.05 0.06 0.07 0.07
0.00 0.00 0.00 0.00 0.00 0.00 0.01 0.02 0.05 0.07 0.04 0.06 0.04 0.03 0.02 0.02 0.01 0.01 0.02 0.01 0.01 0.01 0.00 0.00 0.01 0.01 0.01 0.02 0.02 0.03 0.03 0.04 0.02 0.02 0.03 0.04 0.04 0.05 0.06 0.03 0.04 0.04 0.04 0.04 0.05 0.07 0.08 0.08 0.08
0.00 0.00 0.00 0.00 0.00 0.01 0.01 0.02 0.04 0.05 0.04 0.04 0.05 0.06 0.04 0.02 0.01 0.01 0.01 0.01 0.01 0.01 0.01 0.01 0.01 0.01 0.02 0.02 0.02 0.03 0.03 0.02 0.01 0.02 0.02 0.03 0.03 0.05 0.07 0.06 0.06 0.07 0.07 0.07 0.08 0.09 0.09 0.07 0.06
0.00 0.00 0.00 0.00 0.00 0.00 0.01 0.03 0.05 0.08 0.06 0.05 0.03 0.04 0.06 0.02 0.01 0.01 0.01 0.01 0.01 0.02 0.02 0.01 0.01 0.02 0.02 0.02 0.02 0.02 0.03 0.03 0.02 0.02 0.03 0.03 0.04 0.06 0.09 0.10 0.09 0.10 0.10 0.09 0.10 0.11 0.10 0.09 0.08
0.00 0.00 0.00 0.00 0.00 0.00 0.01 0.03 0.04 0.07 0.09 0.05 0.03 0.02 0.03 0.02 0.01 0.02 0.05 0.06 0.06 0.04 0.02 0.01 0.01 0.01 0.02 0.03 0.02 0.02 0.02 0.02 0.03 0.03 0.04 0.05 0.05 0.07 0.09 0.10 0.12 0.12 0.11 0.12 0.14 0.12 0.10 0.09 0.08
MSLP
1002.51 1003.93 1005.77 1007.82 1009.83 1011.59 1012.91 1013.74 1014.10 1014.11 1013.94 1013.77 1013.72 1013.87 1014.19 1014.58 1014.95 1015.15 1015.12 1014.84 1014.35 1013.72 1013.05 1012.45 1011.98 1011.64 1011.42 1011.28 1011.17 1011.06 1010.94 1010.84 1010.80 1010.85 1011.03 1011.32 1011.71 1012.15 1012.57 1012.93 1013.21 1013.41 1013.55 1013.67 1013.82 1014.03 1014.30 1014.64 1015.03
1003.03 1004.81 1006.92 1009.11 1011.12 1012.73 1013.80 1014.30 1014.32 1014.00 1013.57 1013.21 1013.07 1013.19 1013.55 1014.03 1014.49 1014.81 1014.89 1014.72 1014.32 1013.78 1013.21 1012.69 1012.30 1012.03 1011.88 1011.80 1011.74 1011.66 1011.57 1011.49 1011.45 1011.49 1011.63 1011.89 1012.22 1012.60 1012.96 1013.28 1013.52 1013.70 1013.83 1013.96 1014.12 1014.34 1014.63 1014.97 1015.35
1003.77 1005.83 1008.11 1010.33 1012.24 1013.64 1014.42 1014.60 1014.30 1013.72 1013.10 1012.63 1012.45 1012.58 1012.98 1013.54 1014.08 1014.48 1014.65 1014.55 1014.24 1013.79 1013.30 1012.88 1012.58 1012.40 1012.34 1012.33 1012.32 1012.30 1012.24 1012.17 1012.12 1012.13 1012.23 1012.42 1012.69 1013.00 1013.30 1013.58 1013.80 1013.98 1014.13 1014.29 1014.48 1014.73 1015.03 1015.38 1015.75
1004.66 1006.89 1009.22 1011.37 1013.11 1014.26 1014.77 1014.68 1014.15 1013.40 1012.67 1012.16 1011.99 1012.16 1012.61 1013.21 1013.79 1014.23 1014.44 1014.39 1014.14 1013.77 1013.37 1013.05 1012.85 1012.77 1012.79 1012.85 1012.91 1012.92 1012.89 1012.82 1012.76 1012.74 1012.80 1012.93 1013.13 1013.38 1013.64 1013.88 1014.10 1014.30 1014.49 1014.69 1014.92 1015.19 1015.51 1015.85 1016.21
1005.61 1007.88 1010.14 1012.14 1013.66 1014.57 1014.84 1014.56 1013.91 1013.10 1012.38 1011.91 1011.78 1012.00 1012.49 1013.10 1013.68 1014.11 1014.31 1014.29 1014.08 1013.77 1013.47 1013.24 1013.13 1013.14 1013.23 1013.35 1013.45 1013.50 1013.48 1013.42 1013.35 1013.31 1013.33 1013.41 1013.57 1013.77 1013.99 1014.23 1014.45 1014.68 1014.91 1015.15 1015.43 1015.72 1016.04 1016.37 1016.70
1006.50 1008.68 1010.77 1012.54 1013.83 1014.53 1014.64 1014.28 1013.62 1012.88 1012.25 1011.89 1011.86 1012.13 1012.63 1013.22 1013.75 1014.13 1014.30 1014.27 1014.09 1013.84 1013.61 1013.47 1013.44 1013.52 1013.66 1013.81 1013.93 1013.99 1013.98 1013.93 1013.86 1013.81 1013.81 1013.88 1014.01 1014.19 1014.39 1014.62 1014.86 1015.11 1015.37 1015.65 1015.95 1016.26 1016.56 1016.87 1017.15
1007.23 1009.20 1011.03 1012.55 1013.60 1014.13 1014.17 1013.83 1013.28 1012.70 1012.26 1012.07 1012.15 1012.48 1012.97 1013.50 1013.96 1014.26 1014.38 1014.33 1014.17 1013.98 1013.83 1013.76 1013.80 1013.91 1014.07 1014.23 1014.34 1014.39 1014.38 1014.33 1014.28 1014.25 1014.27 1014.34 1014.47 1014.64 1014.84 1015.07 1015.31 1015.56 1015.83 1016.13 1016.43 1016.73 1017.02 1017.28 1017.52
1007.73 1009.41 1010.94 1012.17 1013.00 1013.42 1013.46 1013.24 1012.88 1012.54 1012.33 1012.33 1012.54 1012.92 1013.39 1013.85 1014.21 1014.43 1014.49 1014.44 1014.31 1014.18 1014.10 1014.10 1014.17 1014.30 1014.45 1014.58 1014.67 1014.70 1014.69 1014.66 1014.64 1014.65 1014.71 1014.81 1014.96 1015.14 1015.33 1015.54 1015.76 1016.00 1016.26 1016.54 1016.82 1017.11 1017.37 1017.60 1017.80
1008.01 1009.37 1010.57 1011.51 1012.15 1012.49 1012.59 1012.52 1012.40 1012.33 1012.38 1012.57 1012.90 1013.32 1013.75 1014.13 1014.40 1014.55 1014.58 1014.53 1014.46 1014.40 1014.39 1014.44 1014.55 1014.68 1014.80 1014.88 1014.93 1014.93 1014.92 1014.92 1014.95 1015.02 1015.14 1015.29 1015.47 1015.66 1015.84 1016.02 1016.21 1016.40 1016.62 1016.86 1017.12 1017.37 1017.61 1017.81 1017.99
1008.15 1009.17 1010.04 1010.71 1011.19 1011.48 1011.65 1011.76 1011.88 1012.07 1012.34 1012.71 1013.13 1013.56 1013.95 1014.25 1014.45 1014.55 1014.58 1014.57 1014.56 1014.58 1014.66 1014.77 1014.89 1015.01 1015.09 1015.13 1015.13 1015.12 1015.11 1015.15 1015.23 1015.38 1015.57 1015.78 1015.99 1016.19 1016.35 1016.49 1016.62 1016.76 1016.92 1017.11 1017.33 1017.55 1017.77 1017.97 1018.13
1008.25 1008.95 1009.52 1009.96 1010.29 1010.55 1010.79 1011.05 1011.37 1011.77 1012.22 1012.71 1013.18 1013.60 1013.94 1014.18 1014.33 1014.40 1014.45 1014.49 1014.57 1014.69 1014.85 1015.01 1015.16 1015.27 1015.32 1015.32 1015.30 1015.27 1015.28 1015.36 1015.52 1015.73 1015.99 1016.26 1016.50 1016.70 1016.83 1016.93 1016.99 1017.07 1017.17 1017.31 1017.49 1017.69 1017.90 1018.10 1018.28
1008.43 1008.87 1009.18 1009.41 1009.62 1009.84 1010.13 1010.51 1010.97 1011.50 1012.06 1012.61 1013.09 1013.48 1013.76 1013.94 1014.05 1014.12 1014.20 1014.32 1014.49 1014.70 1014.94 1015.16 1015.33 1015.44 1015.48 1015.46 1015.42 1015.41 1015.45 1015.57 1015.79 1016.07 1016.39 1016.70 1016.96 1017.15 1017.26 1017.31 1017.32 1017.34 1017.39 1017.49 1017.64 1017.84 1018.05 1018.27 1018.48
1008.79 1009.01 1009.12 1009.19 1009.29 1009.48 1009.78 1010.22 1010.75 1011.34 1011.94 1012.48 1012.92 1013.25 1013.47 1013.60 1013.69 1013.77 1013.89 1014.08 1014.32 1014.62 1014.92 1015.19 1015.39 1015.52 1015.56 1015.55 1015.52 1015.53 1015.61 1015.78 1016.05 1016.38 1016.74 1017.07 1017.34 1017.52 1017.61 1017.62 1017.60 1017.58 1017.60 1017.68 1017.82 1018.02 1018.25 1018.49 1018.73
1009.34 1009.40 1009.36 1009.32 1009.35 1009.50 1009.80 1010.24 1010.78 1011.37 1011.93 1012.42 1012.80 1013.05 1013.21 1013.29 1013.36 1013.45 1013.60 1013.83 1014.13 1014.47 1014.82 1015.12 1015.35 1015.49 1015.56 1015.58 1015.59 1015.64 1015.77 1015.98 1016.28 1016.63 1017.00 1017.33 1017.59 1017.76 1017.84 1017.85 1017.82 1017.79 1017.81 1017.89 1018.04 1018.25 1018.50 1018.77 1019.02
1010.02 1009.98 1009.85 1009.74 1009.73 1009.86 1010.14 1010.56 1011.06 1011.59 1012.08 1012.48 1012.78 1012.96 1013.05 1013.11 1013.16 1013.25 1013.42 1013.67 1013.98 1014.33 1014.67 1014.99 1015.23 1015.40 1015.51 1015.58 1015.65 1015.75 1015.92 1016.16 1016.46 1016.81 1017.16 1017.47 1017.71 1017.88 1017.96 1017.97 1017.97 1017.97 1018.01 1018.11 1018.28 1018.51 1018.78 1019.06 1019.32
1010.72 1010.62 1010.46 1010.33 1010.32 1010.44 1010.71 1011.09 1011.53 1011.98 1012.37 1012.68 1012.89 1013.00 1013.06 1013.09 1013.13 1013.23 1013.39 1013.62 1013.91 1014.22 1014.54 1014.83 1015.08 1015.28 1015.43 1015.56 1015.70 1015.86 1016.06 1016.31 1016.61 1016.92 1017.22 1017.49 1017.71 1017.86 1017.95 1018.01 1018.05 1018.10 1018.19 1018.34 1018.54 1018.78 1019.06 1019.33 1019.60
1011.32 1011.19 1011.05 1010.96 1010.98 1011.13 1011.39 1011.74 1012.10 1012.45 1012.74 1012.94 1013.08 1013.15 1013.18 1013.21 1013.27 1013.36 1013.51 1013.71 1013.94 1014.19 1014.45 1014.70 1014.93 1015.15 1015.35 1015.55 1015.75 1015.97 1016.20 1016.46 1016.72 1016.97 1017.21 1017.42 1017.60 1017.75 1017.86 1017.97 1018.07 1018.20 1018.35 1018.54 1018.77 1019.02 1019.29 1019.56 1019.81
1011.71 1011.61 1011.52 1011.52 1011.62 1011.82 1012.09 1012.39 1012.67 1012.91 1013.08 1013.19 1013.25 1013.29 1013.33 1013.38 1013.47 1013.58 1013.73 1013.88 1014.05 1014.23 1014.41 1014.60 1014.80 1015.03 1015.27 1015.53 1015.81 1016.08 1016.34 1016.59 1016.80 1016.99 1017.15 1017.30 1017.44 1017.58 1017.72 1017.88 1018.06 1018.26 1018.48 1018.71 1018.96 1019.21 1019.46 1019.70 1019.93
1011.88 1011.83 1011.86 1011.99 1012.20 1012.47 1012.74 1012.99 1013.17 1013.27 1013.30 1013.30 1013.29 1013.30 1013.36 1013.47 1013.61 1013.77 1013.93 1014.07 1014.18 1014.28 1014.38 1014.51 1014.69 1014.92 1015.20 1015.52 1015.86 1016.18 1016.47 1016.70 1016.87 1017.00 1017.09 1017.17 1017.26 1017.39 1017.56 1017.78 1018.03 1018.30 1018.57 1018.84 1019.09 1019.33 1019.56 1019.77 1019.97
1011.86 1011.93 1012.11 1012.40 1012.75 1013.09 1013.36 1013.52 1013.56 1013.48 1013.34 1013.19 1013.09 1013.08 1013.16 1013.34 1013.56 1013.80 1014.00 1014.15 1014.24 1014.28 1014.33 1014.40 1014.55 1014.79 1015.10 1015.48 1015.88 1016.26 1016.57 1016.80 1016.93 1017.00 1017.02 1017.04 1017.10 1017.22 1017.42 1017.68 1017.98 1018.31 1018.62 1018.91 1019.16 1019.38 1019.57 1019.75 1019.93
1011.78 1012.01 1012.40 1012.88 1013.37 1013.77 1014.00 1014.03 1013.87 1013.56 1013.18 1012.84 1012.61 1012.54 1012.64 1012.89 1013.21 1013.55 1013.83 1014.03 1014.13 1014.17 1014.18 1014.22 1014.36 1014.60 1014.95 1015.37 1015.83 1016.26 1016.60 1016.84 1016.96 1016.98 1016.96 1016.94 1016.97 1017.08 1017.28 1017.57 1017.91 1018.27 1018.61 1018.91 1019.14 1019.33 1019.49 1019.64 1019.81
1011.77 1012.22 1012.85 1013.53 1014.15 1014.58 1014.74 1014.58 1014.16 1013.55 1012.88 1012.29 1011.88 1011.72 1011.80 1012.10 1012.53 1012.98 1013.38 1013.66 1013.82 1013.88 1013.89 1013.93 1014.06 1014.31 1014.69 1015.16 1015.67 1016.15 1016.54 1016.79 1016.91 1016.92 1016.87 1016.82 1016.83 1016.93 1017.14 1017.44 1017.80 1018.17 1018.52 1018.81 1019.02 1019.19 1019.32 1019.44 1019.60
1011.93 1012.64 1013.52 1014.41 1015.14 1015.57 1015.60 1015.22 1014.48 1013.52 1012.51 1011.63 1010.99 1010.70 1010.74 1011.07 1011.59 1012.16 1012.68 1013.06 1013.30 1013.41 1013.45 1013.50 1013.64 1013.91 1014.32 1014.83 1015.39 1015.92 1016.35 1016.64 1016.77 1016.78 1016.73 1016.66 1016.65 1016.74 1016.94 1017.24 1017.60 1017.97 1018.31 1018.58 1018.78 1018.92 1019.02 1019.13 1019.28
1012.29 1013.27 1014.40 1015.47 1016.29 1016.68 1016.56 1015.93 1014.86 1013.54 1012.17 1010.97 1010.09 1009.63 1009.60 1009.94 1010.52 1011.19 1011.82 1012.32 1012.64 1012.81 1012.89 1012.97 1013.13 1013.41 1013.84 1014.38 1014.98 1015.55 1016.02 1016.34 1016.51 1016.54 1016.49 1016.42 1016.40 1016.47 1016.66 1016.94 1017.29 1017.64 1017.96 1018.22 1018.40 1018.51 1018.60 1018.70 1018.85
1012.80 1014.04 1015.38 1016.60 1017.46 1017.80 1017.52 1016.63 1015.27 1013.61 1011.91 1010.42 1009.31 1008.70 1008.58 1008.89 1009.50 1010.24 1010.96 1011.54 1011.94 1012.17 1012.29 1012.39 1012.56 1012.85 1013.29 1013.85 1014.47 1015.06 1015.57 1015.93 1016.12 1016.17 1016.14 1016.07 1016.04 1016.10 1016.26 1016.52 1016.84 1017.17 1017.48 1017.71 1017.88 1017.98 1018.06 1018.15 1018.30
1013.34 1014.78 1016.28 1017.58 1018.46 1018.72 1018.30 1017.22 1015.61 1013.70 1011.76 1010.05 1008.77 1008.03 1007.83 1008.11 1008.73 1009.49 1010.25 1010.88 1011.32 1011.58 1011.73 1011.84 1012.00 1012.29 1012.73 1013.28 1013.91 1014.52 1015.04 1015.42 1015.64 1015.71 1015.68 1015.61 1015.58 1015.62 1015.75 1015.98 1016.28 1016.58 1016.86 1017.09 1017.24 1017.34 1017.42 1017.50 1017.64
1013.77 1015.32 1016.89 1018.22 1019.07 1019.26 1018.73 1017.52 1015.78 1013.74 1011.69 1009.88 1008.52 1007.71 1007.47 1007.71 1008.31 1009.07 1009.82 1010.44 1010.89 1011.15 1011.29 1011.39 1011.54 1011.81 1012.22 1012.75 1013.36 1013.96 1014.48 1014.86 1015.09 1015.17 1015.14 1015.08 1015.03 1015.05 1015.16 1015.37 1015.63 1015.92 1016.18 1016.40 1016.55 1016.65 1016.72 1016.79 1016.91
1013.98 1015.54 1017.09 1018.36 1019.13 1019.25 1018.66 1017.42 1015.67 1013.65 1011.64 1009.87 1008.54 1007.75 1007.51 1007.74 1008.30 1009.02 1009.72 1010.30 1010.70 1010.92 1011.02 1011.09 1011.21 1011.44 1011.81 1012.31 1012.87 1013.44 1013.94 1014.30 1014.52 1014.60 1014.57 1014.51 1014.45 1014.45 1014.54 1014.72 1014.97 1015.23 1015.49 1015.70 1015.85 1015.94 1016.01 1016.07 1016.16
1013.93 1015.39 1016.79 1017.92 1018.58 1018.63 1018.04 1016.85 1015.22 1013.37 1011.54 1009.95 1008.78 1008.11 1007.92 1008.16 1008.68 1009.32 1009.93 1010.42 1010.74 1010.90 1010.94 1010.96 1011.03 1011.22 1011.54 1011.98 1012.49 1013.00 1013.45 1013.79 1013.98 1014.05 1014.02 1013.94 1013.88 1013.88 1013.95 1014.12 1014.34 1014.60 1014.84 1015.05 1015.19 1015.28 1015.34 1015.37 1015.42
1013.70 1014.94 1016.11 1017.02 1017.52 1017.49 1016.92 1015.86 1014.45 1012.87 1011.34 1010.05 1009.13 1008.63 1008.55 1008.81 1009.29 1009.85 1010.36 1010.74 1010.95 1011.02 1011.00 1010.96 1010.98 1011.12 1011.38 1011.76 1012.20 1012.65 1013.05 1013.34 1013.50 1013.54 1013.51 1013.43 1013.37 1013.37 1013.44 1013.59 1013.81 1014.05 1014.28 1014.47 1014.61 1014.69 1014.72 1014.73 1014.74
Thickness
5864 5862 5857 5841 5809 5780 5772 5782 5792 5791 5789 5793 5797 5791 5779 5770 5760 5748 5767 5776 5776 5776 5775 5776 5776 5777 5777 5777 5776 5777 5777 5777 5776 5776 5775 5774 5773 5772 5771 5770 5769 5768 5766 5765 5763 5762 5761 5760 5758
5868 5863 5849 5825 5788 5762 5768 5787 5791 5793 5796 5800 5797 5790 5781 5772 5775 5770 5771 5775 5777 5776 5775 5775 5775 5775 5775 5775 5775 5775 5775 5774 5774 5774 5773 5772 5771 5771 5770 5769 5767 5766 5765 5763 5762 5760 5759 5758 5756
5870 5864 5836 5809 5785 5771 5775 5792 5796 5801 5806 5803 5794 5791 5782 5774 5777 5774 5776 5777 5776 5775 5775 5775 5775 5774 5774 5774 5773 5773 5773 5772 5772 5772 5771 5770 5769 5768 5768 5767 5765 5764 5763 5761 5760 5759 5757 5756 5755
5867 5849 5829 5800 5787 5796 5799 5801 5805 5801 5801 5802 5795 5782 5783 5788 5785 5781 5781 5779 5777 5775 5775 5774 5774 5774 5773 5772 5771 5771 5771 5771 5770 5769 5769 5768 5767 5767 5765 5764 5763 5762 5761 5759 5759 5757 5756 5755 5754
5864 5835 5806 5788 5793 5805 5812 5814 5813 5802 5796 5794 5792 5777 5774 5787 5789 5785 5782 5779 5777 5775 5775 5774 5773 5772 5771 5771 5770 5769 5769 5768 5768 5767 5766 5766 5765 5765 5763 5763 5761 5760 5759 5759 5758 5756 5755 5754 5753
5844 5823 5791 5780 5793 5808 5815 5819 5813 5801 5794 5793 5789 5779 5774 5787 5786 5783 5782 5779 5778 5776 5775 5774 5773 5772 5771 5770 5769 5769 5768 5767 5766 5765 5764 5764 5763 5763 5761 5761 5760 5759 5758 5757 5756 5755 5754 5753 5752
5838 5814 5795 5793 5794 5802 5813 5822 5814 5802 5795 5795 5796 5780 5777 5784 5788 5787 5784 5780 5778 5777 5775 5774 5773 5772 5770 5769 5769 5768 5766 5765 5764 5763 5763 5762 5761 5761 5760 5759 5759 5758 5757 5756 5756 5755 5753 5752 5752
5854 5823 5803 5799 5798 5802 5821 5825 5820 5811 5802 5807 5803 5783 5776 5786 5791 5788 5784 5780 5777 5776 5775 5774 5773 5771 5770 5769 5767 5766 5765 5764 5763 5762 5761 5760 5760 5759 5758 5757 5757 5756 5756 5756 5755 5754 5753 5752 5752
5862 5817 5798 5804 5806 5808 5825 5821 5818 5822 5811 5808 5807 5799 5796 5797 5793 5786 5779 5776 5775 5774 5774 5773 5772 5771 5770 5768 5766 5765 5764 5763 5761 5760 5760 5759 5758 5757 5757 5757 5756 5756 5755 5755 5755 5754 5753 5752 5751
5849 5813 5815 5831 5830 5823 5826 5823 5819 5810 5801 5798 5798 5800 5801 5797 5791 5783 5777 5774 5773 5772 5773 5773 5773 5771 5770 5768 5766 5764 5763 5761 5760 5760 5759 5758 5757 5757 5757 5756 5756 5755 5755 5754 5754 5754 5753 5751 5751
5851 5832 5839 5843 5844 5838 5827 5825 5825 5808 5794 5798 5796 5796 5797 5793 5789 5784 5781 5779 5778 5777 5776 5775 5774 5772 5771 5768 5766 5764 5762 5761 5760 5759 5759 5758 5757 5756 5756 5756 5755 5755 5754 5754 5754 5753 5753 5752 5751
5852 5850 5853 5849 5850 5840 5832 5828 5820 5814 5808 5814 5811 5806 5799 5793 5789 5786 5783 5782 5782 5780 5779 5778 5776 5774 5772 5770 5767 5765 5763 5761 5760 5760 5759 5759 5757 5756 5756 5755 5755 5755 5754 5754 5754 5753 5753 5753 5752
5850 5849 5856 5856 5851 5845 5838 5828 5822 5815 5819 5818 5813 5806 5799 5795 5792 5791 5790 5787 5784 5781 5780 5780 5779 5776 5774 5771 5768 5766 5765 5763 5762 5761 5760 5760 5759 5757 5756 5756 5755 5755 5755 5754 5754 5754 5753 5753 5753
5852 5852 5851 5850 5848 5846 5834 5825 5821 5813 5820 5814 5809 5804 5802 5798 5796 5792 5789 5786 5785 5783 5782 5782 5781 5779 5776 5772 5770 5768 5767 5764 5763 5762 5761 5761 5760 5759 5757 5757 5756 5755 5755 5755 5754 5754 5754 5753 5753
5857 5842 5836 5840 5842 5839 5833 5811 5814 5820 5820 5811 5808 5806 5804 5802 5799 5795 5793 5790 5788 5785 5783 5782 5781 5779 5777 5774 5772 5770 5768 5766 5765 5764 5763 5762 5761 5759 5758 5757 5756 5756 5756 5756 5755 5754 5754 5753 5753
5844 5826 5812 5828 5838 5836 5822 5792 5813 5823 5818 5809 5809 5808 5804 5803 5802 5801 5798 5794 5791 5788 5784 5783 5783 5780 5777 5775 5773 5771 5769 5767 5766 5765 5764 5763 5762 5760 5759 5757 5757 5757 5756 5755 5754 5754 5752 5751 5751
5819 5805 5806 5819 5837 5834 5819 5799 5814 5823 5818 5810 5810 5809 5806 5802 5802 5801 5800 5798 5794 5791 5787 5784 5782 5780 5778 5776 5774 5772 5770 5768 5767 5766 5765 5764 5763 5761 5760 5758 5758 5757 5757 5756 5755 5753 5752 5750 5750
5803 5807 5809 5812 5829 5830 5815 5807 5815 5821 5818 5813 5811 5809 5807 5804 5802 5804 5803 5801 5798 5794 5791 5788 5785 5782 5779 5776 5774 5772 5770 5768 5768 5767 5766 5765 5764 5763 5761 5759 5758 5758 5756 5755 5754 5753 5752 5751 5750
5823 5815 5810 5819 5834 5824 5813 5808 5812 5817 5816 5813 5810 5808 5807 5807 5808 5808 5806 5803 5799 5795 5792 5790 5786 5783 5780 5776 5772 5769 5768 5768 5768 5768 5767 5766 5765 5763 5761 5760 5759 5758 5755 5754 5754 5752 5751 5749 5750
5823 5812 5811 5821 5833 5822 5809 5806 5812 5816 5816 5817 5814 5812 5811 5808 5806 5806 5805 5804 5800 5796 5794 5791 5788 5785 5783 5779 5776 5774 5772 5771 5771 5770 5768 5767 5766 5765 5763 5761 5759 5758 5756 5754 5753 5752 5749 5749 5749
5817 5812 5812 5812 5819 5818 5806 5793 5799 5810 5816 5817 5818 5817 5816 5813 5810 5808 5806 5804 5802 5798 5796 5795 5791 5788 5785 5782 5779 5776 5773 5771 5769 5768 5768 5768 5767 5766 5764 5762 5761 5759 5756 5754 5753 5752 5749 5746 5747
5805 5827 5826 5817 5799 5785 5796 5766 5788 5800 5803 5809 5813 5815 5816 5817 5814 5812 5809 5806 5804 5803 5801 5797 5793 5790 5788 5785 5781 5775 5771 5768 5769 5770 5769 5769 5768 5767 5765 5764 5762 5760 5758 5755 5754 5754 5751 5748 5744
5821 5834 5826 5815 5797 5783 5786 5770 5778 5796 5793 5804 5814 5818 5820 5820 5818 5815 5814 5812 5810 5807 5804 5800 5796 5792 5790 5787 5783 5778 5775 5773 5772 5771 5770 5769 5768 5767 5766 5765 5763 5761 5759 5757 5755 5754 5752 5749 5745
5834 5822 5808 5791 5776 5759 5779 5771 5771 5790 5802 5810 5816 5821 5822 5823 5822 5819 5817 5814 5811 5809 5805 5801 5797 5793 5791 5788 5785 5781 5777 5774 5771 5770 5769 5768 5767 5767 5766 5765 5763 5761 5759 5757 5755 5754 5752 5749 5747
5818 5783 5754 5751 5740 5749 5779 5776 5778 5809 5822 5822 5820 5821 5823 5826 5823 5819 5815 5813 5811 5809 5806 5803 5798 5794 5792 5789 5786 5784 5781 5777 5773 5771 5769 5767 5765 5765 5765 5765 5763 5761 5759 5757 5756 5753 5751 5749 5746
5803 5783 5751 5738 5737 5750 5772 5769 5792 5821 5829 5831 5829 5827 5826 5825 5824 5821 5820 5817 5814 5811 5808 5804 5800 5796 5793 5790 5788 5786 5783 5779 5776 5774 5772 5769 5767 5766 5766 5764 5762 5760 5758 5757 5754 5752 5750 5748 5745
5799 5785 5784 5760 5755 5747 5756 5777 5798 5818 5820 5822 5823 5823 5823 5824 5823 5822 5822 5820 5816 5813 5810 5807 5802 5797 5794 5791 5788 5785 5783 5780 5777 5775 5773 5771 5769 5768 5766 5764 5761 5759 5757 5755 5753 5749 5748 5746 5744
5812 5798 5770 5754 5738 5732 5750 5764 5772 5796 5805 5812 5816 5818 5821 5824 5823 5823 5822 5821 5818 5815 5812 5807 5803 5798 5795 5792 5788 5786 5783 5781 5778 5775 5772 5770 5769 5767 5765 5763 5760 5758 5756 5753 5750 5747 5745 5743 5741
5797 5790 5771 5752 5750 5733 5733 5752 5796 5799 5806 5808 5812 5816 5818 5819 5820 5820 5819 5818 5816 5813 5809 5804 5801 5797 5794 5791 5788 5785 5782 5780 5777 5775 5772 5770 5768 5765 5763 5762 5759 5756 5753 5751 5748 5745 5743 5740 5738
5799 5789 5770 5752 5746 5742 5738 5754 5807 5808 5808 5809 5810 5813 5815 5816 5816 5817 5816 5813 5809 5807 5805 5801 5798 5795 5793 5791 5787 5784 5781 5778 5775 5773 5771 5769 5766 5764 5761 5760 5757 5754 5751 5749 5745 5743 5740 5737 5734